Location: Caltech
(34.1382°N, 118.1253°W)
Time: 16:16:56
(UTC-07:00)

Cosmos 1937 Rocket - Visible Passes

Search period start: 05 July 2015 00:00
Search period end: 15 July 2015 00:00
Orbit: 747 x 781 km, 74.0° (Epoch: 05 July)

Date Brightness Start Highest point End Pass type
(mag) Time Alt. Az. Time Alt. Az. Time Alt. Az.
05 Jul 5.0 03:59:42 10° N 04:04:28 37° ENE 04:09:14 10° SE visible
06 Jul 5.9 03:22:14 10° NNE 03:26:02 21° ENE 03:29:58 10° ESE visible
06 Jul 4.0 05:03:27 10° NW 05:08:11 37° WSW 05:12:50 10° SSW visible
07 Jul 6.4 02:45:50 10° NE 02:47:27 12° ENE 02:49:22 10° E visible
07 Jul 3.4 04:24:58 10° NNW 04:30:06 71° WSW 04:35:12 10° S visible
08 Jul 3.9 03:46:50 10° N 03:51:57 61° ENE 03:57:00 10° SSE visible
09 Jul 5.0 03:09:02 10° N 03:13:38 33° ENE 03:18:15 10° SE visible
09 Jul 4.6 04:51:25 10° NW 04:55:27 23° W 04:59:19 10° SSW visible
10 Jul 5.9 02:31:42 10° NNE 02:35:10 19° ENE 02:38:48 10° ESE visible
10 Jul 3.8 04:12:34 10° NNW 04:17:25 43° WSW 04:20:19 22° SSW visible
11 Jul 3.3 03:34:10 10° NNW 03:39:19 82° WSW 03:41:24 37° S visible
12 Jul 4.1 02:56:06 10° N 03:01:08 53° ENE 03:02:43 38° ESE visible
12 Jul 5.2 04:40:02 10° WNW 04:42:41 14° W 04:42:49 14° W visible
13 Jul 5.1 02:18:22 10° N 02:22:47 29° ENE 02:24:13 25° E visible
13 Jul 4.5 04:00:25 10° NW 04:04:20 26° W 04:04:20 26° W visible
14 Jul 5.8 01:41:12 10° NNE 01:44:17 16° ENE 01:45:51 15° E visible
14 Jul 3.8 03:21:40 10° NNW 03:25:58 46° WNW 03:25:58 46° WNW visible
